Simultaneous Nadir Overpasses (SNOs) Predictions

Prediction of SNOs between AQUA and GOES-15 Satellite Orbit:

Table of predicted SNOs for the next 14.0 days since TLE Epoch: 12/17/2022
Index Date Time (AQUA) AQUA Lat,Lon GOES-15 Lat,Lon Distance(km) Time Diff (sec)
1 12/17/2022 09:58:12 -0.75,-123.93 0.01,-127.40 395.50 80
2 12/17/2022 22:19:24 -0.34,-129.06 0.00,-127.32 197.91 80
3 12/19/2022 22:06:24 0.27,-125.89 -0.00,-127.23 152.26 80
4 12/20/2022 10:27:28 0.76,-131.00 -0.01,-127.27 424.00 80
5 12/22/2022 10:14:28 0.12,-127.83 -0.00,-127.17 74.80 80
6 12/24/2022 10:01:27 -0.48,-124.65 0.00,-127.06 273.73 80
7 12/24/2022 22:22:39 -0.58,-129.79 0.00,-126.97 320.24 80
8 12/26/2022 22:09:38 0.07,-126.61 0.00,-126.86 28.08 80
9 12/28/2022 21:56:37 0.73,-123.44 0.00,-126.75 376.59 80
10 12/29/2022 10:17:40 0.35,-128.54 -0.01,-126.78 199.94 80
